TimeAST,TemperatureF,Dew PointF,Humidity,Sea Level PressureIn,VisibilityMPH,Wind Direction,Wind SpeedMPH,Gust SpeedMPH,PrecipitationIn,Events,Conditions,WindDirDegrees,DateUTC
12:56 AM,79.0,66.9,66,29.98,10.0,NE,6.9,-,N/A,,Partly Cloudy,50,2012-11-30 04:56:00
1:56 AM,78.1,66.9,68,29.96,10.0,Calm,Calm,-,N/A,,Partly Cloudy,0,2012-11-30 05:56:00
2:56 AM,77.0,68.0,74,29.94,10.0,South,3.5,-,N/A,,Scattered Clouds,190,2012-11-30 06:56:00
3:56 AM,78.1,69.1,74,29.93,10.0,Calm,Calm,-,N/A,,Mostly Cloudy,0,2012-11-30 07:56:00
4:56 AM,77.0,70.0,79,29.92,10.0,Calm,Calm,-,N/A,,Scattered Clouds,0,2012-11-30 08:56:00
5:56 AM,80.1,69.1,69,29.93,10.0,NE,10.4,-,N/A,,Mostly Cloudy,40,2012-11-30 09:56:00
6:56 AM,75.9,72.0,87,29.95,10.0,SE,4.6,-,0.05,,Mostly Cloudy,140,2012-11-30 10:56:00
7:56 AM,78.1,72.0,81,29.97,10.0,Calm,Calm,-,0.00,,Mostly Cloudy,0,2012-11-30 11:56:00
8:56 AM,81.0,73.0,77,29.98,10.0,Calm,Calm,-,N/A,,Scattered Clouds,0,2012-11-30 12:56:00
9:56 AM,81.0,73.0,77,30.00,10.0,NE,11.5,16.1,0.00,Rain,Light Rain,50,2012-11-30 13:56:00
10:56 AM,82.0,71.1,69,29.99,10.0,ESE,6.9,-,0.00,,Scattered Clouds,110,2012-11-30 14:56:00
11:56 AM,84.0,70.0,63,29.97,10.0,ENE,10.4,-,N/A,,Scattered Clouds,70,2012-11-30 15:56:00
12:56 PM,84.9,71.1,63,29.95,10.0,NE,11.5,17.3,N/A,,Scattered Clouds,40,2012-11-30 16:56:00
1:56 PM,84.9,71.1,63,29.93,10.0,ENE,6.9,-,N/A,,Scattered Clouds,70,2012-11-30 17:56:00
2:56 PM,86.0,70.0,59,29.91,10.0,ENE,10.4,-,N/A,,Scattered Clouds,60,2012-11-30 18:56:00
3:56 PM,84.0,69.1,61,29.91,10.0,ENE,8.1,-,N/A,,Partly Cloudy,70,2012-11-30 19:56:00
4:56 PM,82.9,70.0,65,29.91,10.0,ENE,8.1,-,N/A,,Partly Cloudy,60,2012-11-30 20:56:00
5:56 PM,82.0,70.0,67,29.92,10.0,East,6.9,-,N/A,,Scattered Clouds,80,2012-11-30 21:56:00
6:56 PM,81.0,70.0,69,29.93,10.0,East,5.8,-,N/A,,Partly Cloudy,90,2012-11-30 22:56:00
7:56 PM,80.1,71.1,74,29.94,10.0,Calm,Calm,-,N/A,,Partly Cloudy,0,2012-11-30 23:56:00
8:56 PM,79.0,70.0,74,29.95,10.0,Calm,Calm,-,N/A,,Scattered Clouds,0,2012-12-01 00:56:00
9:56 PM,79.0,70.0,74,29.95,10.0,Calm,Calm,-,N/A,,Scattered Clouds,0,2012-12-01 01:56:00
10:56 PM,79.0,73.0,82,29.95,10.0,Calm,Calm,-,0.01,Rain,Light Rain,0,2012-12-01 02:56:00
11:56 PM,75.0,71.1,87,29.94,9.0,SE,6.9,-,0.02,Rain,Rain,140,2012-12-01 03:56:00